Location: Lombard
(41.8800°N, 88.0080°W)
Time: 23:31:54
(UTC-05:00)

Transit 2A - Pass Details

Date: 11 February 2023
Orbit: 591 x 964 km, 66.7° (Epoch: 20 March)

Event Time Altitude Azimuth Distance (km) Brightness Sun altitude
Rises 22:54:33 0° 334° (NNW) 3,519 - -57.9°
Reaches altitude 10° 22:57:10 10° 341° (NNW) 2,618 - -58.2°
Maximum altitude 23:03:01 43° 52° (NE) 1,315 - -58.7°
Drops below altitude 10° 23:09:02 10° 123° (ESE) 2,696 - -59.3°
Sets 23:11:45 0° 130° (SE) 3,634 - -59.5°
